Location: Bateh Kamit Rapids
(2.3667°N, 113.8167°E)
Time: 06:01:54
(UTC+00:00)

Daily predictions for brighter satellites

Satellite Brightness Start Highest point End
(mag) Time Altitude Azimuth Time Altitude Azimuth Time Altitude Azimuth
Cosmos 1300 Rocket 4.0 12:02:16 10° NNW 12:06:32 59° W 12:09:13 22° SSW
Cosmos 1023 Rocket 4.3 12:01:48 10° N 12:06:59 75° ENE 12:08:28 47° SSE
Cosmos 1821 Rocket 4.5 12:02:42 10° NNW 12:08:39 58° W 12:14:37 10° S
Okean 2 Rocket 3.1 12:06:07 10° N 12:10:37 78° W 12:12:10 41° S
Meteor 2-20 4.4 12:05:51 10° S 12:12:00 84° W 12:18:05 10° N
Cosmos 839 Rocket 4.4 12:05:39 10° N 12:12:59 50° ENE 12:14:20 44° ESE
Maqsat-B 4.1 12:08:16 10° WSW 12:13:53 27° S 12:13:53 27° S
ATLAS 3B R/B 3.9 12:08:23 10° SW 12:14:23 39° WNW 12:20:21 10° N
MetOp-A 4.0 12:16:56 60° ESE 12:17:31 65° ENE 12:22:47 10° N
CSL-04 Debris 4.1 12:15:31 40° S 12:17:33 85° WSW 12:22:56 10° NNW
Cosmos 1190 Rocket 3.9 12:13:20 10° N 12:18:37 76° ENE 12:19:12 67° SE
USA 234 4.3 12:20:23 27° ENE 12:20:55 27° NE 12:26:14 10° N
Cosmos 2151 Rocket 3.6 12:17:20 10° N 12:21:43 75° W 12:21:57 72° SW
Cosmos 1241 Rocket 4.3 12:16:39 10° NNW 12:22:52 90° ENE 12:24:22 55° SSE
Cosmos 2263 Rocket 2.3 12:18:28 10° N 12:23:42 55° ENE 12:23:42 55° ENE
Cosmos 2219 Rocket 2.5 12:29:14 10° SSW 12:34:51 66° WNW 12:40:28 10° N
Cosmos 1934 Rocket 4.2 12:29:40 10° N 12:35:51 68° W 12:38:16 39° SSW
Palapa 6 Rocket 4.4 12:29:43 10° NW 12:35:59 56° NNE 12:36:56 52° NE
Palapa B4 Rocket 4.2 12:33:37 10° NW 12:38:47 59° NNE 12:39:21 56° NE
Cosmos 1140 Rocket 4.5 12:37:29 10° NNW 12:42:21 42° WSW 12:43:14 38° SW
Cosmos 2333 Rocket 3.5 12:42:05 10° SW 12:47:22 38° WNW 12:52:38 10° N
Meteor 2-10 4.5 12:43:23 10° NNW 12:48:10 61° WNW 12:48:10 61° WNW
Maqsat-H 4.5 13:06:11 10° WSW 13:06:47 12° SW 13:06:47 12° SW
CZ-3C R/B 3.3 13:22:05 10° WNW 13:41:44 52° NW 13:41:44 52° NW
ARIANE 5 R/B 4.1 19:06:09 60° ESE 19:06:09 60° ESE 19:51:02 10° E
ATLAS 2A CENTAUR R/B 4.2 19:38:58 18° ENE 19:38:58 18° ENE 19:41:52 10° E
ATLAS 2AS CENTAUR R/B 4.2 19:59:37 26° NW 19:59:37 26° NW 20:04:03 10° N
ARIANE 5 R/B 3.5 20:04:11 66° S 20:04:25 66° SSE 20:36:03 10° E
ARIANE 5 R/B 3.5 20:04:11 66° S 20:04:26 66° SSE 20:36:03 10° E
ARIANE 5 R/B 3.5 20:04:11 66° S 20:04:26 66° SSE 20:36:02 10° E
Cosmos 1697 Rocket 4.0 20:15:14 10° N 20:20:28 39° ENE 20:25:41 10° SE
USA 276 4.4 20:29:06 24° ENE 20:29:06 24° ENE 20:30:35 10° NE
Cosmos 1666 3.8 20:27:58 40° E 20:27:59 40° E 20:31:27 10° NNE
CZ-3 Stage 3 2.7 20:30:26 27° ENE 20:30:26 27° ENE 20:32:46 10° ENE
Cosmos 1484 Rocket 3.8 20:26:29 10° NNE 20:28:53 38° NNE 20:28:53 38° NNE
SWIFT 3.8 20:32:23 27° NNW 20:32:23 27° NNW 20:35:42 10° NE
Ariane H10 3.6 20:35:12 28° SSE 20:35:17 28° SSE 20:42:17 10° ESE
Lacrosse 5 rocket 4.1 20:36:00 10° NNE 20:38:47 19° ENE 20:41:40 10° ESE
Cosmos 1707 Rocket 4.1 20:37:17 10° N 20:41:30 55° E 20:45:44 10° SSE
Meteor 1-5 Rocket 4.1 20:39:18 29° S 20:42:10 79° E 20:47:26 10° N
SL-08 R/B 4.4 20:44:55 29° NW 20:44:55 29° NW 20:47:27 10° NNW
CENTAUR R/B 4.0 20:34:28 10° N 20:43:06 54° ENE 20:51:22 10° SE
METEOR-M 4.1 20:38:20 10° N 20:43:33 61° WNW 20:44:38 50° SW
Meteor 1-31 Rocket 4.0 20:43:53 10° NNE 20:47:24 38° E 20:49:57 16° SSE
OAO 2 Rocket 3.7 20:49:11 44° W 20:50:22 54° NW 20:55:29 10° NE
BLOCK DM-SL R/B 1.6 20:50:43 56° W 20:51:25 89° N 20:53:44 10° E
Cosmos 1980 Rocket 3.8 20:46:55 10° N 20:51:59 35° ENE 20:57:04 10° SE
USA 281 3.2 20:46:44 10° S 20:53:09 57° WSW 20:59:34 10° NNW
USA 238 DEB 4.4 20:47:27 10° NNW 20:55:00 65° ENE 21:02:35 10° SSE
USA 238 4.4 20:47:35 10° NNW 20:55:08 65° ENE 21:02:42 10° SSE
GPS 2-17 Rocket1 3.0 20:54:49 51° WSW 20:55:36 60° SSW 21:00:09 10° ESE
Meteosat 1 Rocket2 4.3 20:52:45 35° SW 20:55:43 78° SSE 21:05:11 10° ENE
FALCON 9 DEB 4.2 20:55:50 10° NNW 20:58:45 40° NE 21:01:39 10° SE
Cosmos 1709 Rocket 3.9 20:57:00 22° SSW 21:01:00 59° W 21:06:59 10° N
X-37B 3.8 20:59:04 10° N 21:01:09 16° NE 21:03:14 10° E
MOS 1 Rocket 3.9 20:59:08 10° SSE 21:03:22 52° E 21:07:30 10° N
SJ-12 3.9 21:00:49 10° NNE 21:04:50 80° E 21:08:06 16° S
CBERS 1 LM4 rocket 4.4 21:01:47 10° N 21:06:27 56° WNW 21:09:07 24° SSW
BREEZE-M DEB (TANK) 4.4 21:01:57 10° NNW 21:08:11 40° NE 21:10:51 10° ESE
Cosmos 2369 3.7 21:02:36 10° NNW 21:08:14 87° ENE 21:13:53 10° SSE
FALCON 9 DEB 2.6 21:08:15 37° NW 21:09:14 65° SW 21:12:13 10° SSE
Cosmos 1470 Rocket 4.4 21:09:13 29° W 21:09:32 29° W 21:13:24 10° NNW
ALOS 4.1 21:09:22 10° NW 21:11:13 15° WNW 21:11:13 15° WNW
Hipparcos 4.4 21:11:40 27° W 21:13:14 67° N 21:17:17 10° E
NOSS 2-1 (C) 3.5 21:11:47 20° SSW 21:15:13 74° WNW 21:19:05 10° NNE
Cosmos 2360 4.2 21:09:52 10° NNW 21:15:27 62° WSW 21:21:02 10° S
ARIANE 44P R/B 2.9 21:11:57 21° WSW 21:16:59 67° S 21:19:54 10° E
Cosmos 1933 Rocket 4.1 21:17:32 23° SW 21:19:36 36° W 21:23:35 10° NNW
FALCON 9 DEB 3.0 21:18:29 14° NW 21:20:55 44° SW 21:23:49 10° SSE
FALCON 9 DEB 2.7 21:18:26 10° NW 21:21:29 66° SW 21:24:31 10° SSE
NOSS 2-1 (D) 3.6 21:18:49 18° SW 21:22:24 58° WNW 21:26:11 10° NNE
Meteor 1-19 Rocket 4.2 21:17:02 10° N 21:22:55 73° W 21:28:40 10° S
DELTA 4 R/B 2.1 21:26:58 17° WNW 21:27:31 19° NNW 21:28:53 10° NNE
Cosmos 1743 4.2 21:25:06 10° SSE 21:28:42 39° E 21:32:19 10° NNE
Meteor 1-11 Rocket 3.8 21:24:38 10° S 21:30:35 72° W 21:36:29 10° N
Cosmos 2074 Rocket 4.2 21:25:12 10° S 21:31:29 78° E 21:37:46 10° N
ADEOS 3.7 21:26:33 10° N 21:31:36 54° WNW 21:36:42 10° SSW
COSMOS 2455 4.1 21:26:14 10° S 21:31:51 41° ESE 21:37:26 10° NE
Cosmos 371 Rocket 3.9 21:33:44 10° NW 21:38:03 34° WSW 21:42:23 10° SSW
Atlas Centaur 2 3.9 21:32:23 10° SW 21:40:15 45° SSE 21:48:11 10° ENE
CZ-4B R/B 3.1 21:36:04 10° NNE 21:40:29 84° ESE 21:44:47 10° S
ARIANE 5 R/B 2.9 21:41:46 10° W 21:45:36 77° N 21:51:17 10° E
CZ-4C R/B 2.8 21:46:05 10° S 21:49:20 89° WSW 21:52:40 10° NNW
Genesis I 4.2 21:47:24 10° NW 21:50:47 26° WSW 21:54:09 10° S
Meteor 2-12 Rocket 4.4 21:45:07 10° S 21:51:11 83° W 21:57:13 10° N
GPS 2-12 Rocket1 3.3 21:49:05 10° WSW 21:53:50 68° SSE 21:58:38 10° ENE
ARIANE 5 DEB (SYLDA) 4.2 21:50:06 10° W 21:54:07 82° N 22:07:32 10° E
Cosmos 332 Rocket 4.4 21:55:49 10° NW 22:00:13 35° WSW 22:04:39 10° SSW
